Weather History for KDPA - September, 2013

Change the Weather History Date:

Sunday, September 22, 2013

  Actual Average Record
Temperature  
Mean Temperature 56 °F 62 °F  
Max Temperature 69 °F 73 °F 88 °F (2005)
Min Temperature 42 °F 50 °F 38 °F (1999)
Degree Days  
Heating Degree Days 9 5  
Month to date heating degree days 61 51  
Since 1 July heating degree days 87 60  
Cooling Degree Days 0 1  
Month to date cooling degree days 99 70  
Year to date cooling degree days 726 794  
Growing Degree Days 5 (Base 50)    
Moisture  
Dew Point 45 °F    
Average Humidity 74    
Maximum Humidity 96    
Minimum Humidity 47    
Precipitation  
Precipitation 0.00 in 0.10 in 2.27 in (2006)
Month to date precipitation 1.66 2.36  
Year to date precipitation 29.02 27.99  
Sea Level Pressure  
Sea Level Pressure 30.02 in    
Wind  
Wind Speed 4 mph (NE)    
Max Wind Speed 14 mph    
Max Gust Speed 17 mph    
Visibility 10 miles    
Events      
T = Trace of Precipitation, MM = Missing Value Source: NWS Daily Summary

Daily Weather History Graph

Daily Weather History Graph

Search for Another Location

Airport or City:

Trip Planner

Search our weather history database for the weather conditions in past years. The results will help you decide how hot, cold, wet, or windy it might be!

Date:

Astronomy

Sep. 22, 2013 Rise Set
Actual Time 6:40 AM CDT 6:49 PM CDT
Civil Twilight 6:12 AM CDT 7:17 PM CDT
Nautical Twilight 5:40 AM CDT 7:50 PM CDT
Astronomical Twilight 5:06 AM CDT 8:23 PM CDT
Moon 8:35 PM CDT (9/22) 10:04 AM CDT (9/22)
Length of Visible Light 13h 04m
Length of Day
12h 09m
Waning Gibbous, 88% of the Moon is Illuminated
Sep 22
Waning Gibbous
Sep 26
Last Quarter
Oct 4
New
Oct 11
First Quarter
Oct 18
Full

Hourly Weather History & Observations

Time (CDT) Temp. Windchill Dew Point Humidity Pressure Visibility Wind Dir Wind Speed Gust Speed Precip Events Conditions
12:52 AM 46.0 °F - 42.1 °F 86% 29.97 in 10.0 mi Calm Calm - N/A   Clear
1:52 AM 45.0 °F 43.5 °F 42.1 °F 90% 29.97 in 10.0 mi North 3.5 mph - N/A   Clear
2:52 AM 45.0 °F 43.5 °F 42.1 °F 90% 29.97 in 10.0 mi NNW 3.5 mph - N/A   Clear
3:52 AM 44.1 °F 41.5 °F 41.0 °F 89% 29.98 in 10.0 mi NW 4.6 mph - N/A   Clear
4:52 AM 44.1 °F 42.5 °F 42.1 °F 93% 29.99 in 10.0 mi NNE 3.5 mph - N/A   Clear
5:52 AM 42.1 °F 40.2 °F 41.0 °F 96% 30.00 in 9.0 mi North 3.5 mph - N/A   Clear
6:52 AM 43.0 °F - 41.0 °F 93% 30.02 in 9.0 mi Calm Calm - N/A   Clear
7:52 AM 50.0 °F - 46.0 °F 86% 30.03 in 10.0 mi NNE 3.5 mph - N/A   Clear
8:52 AM 55.0 °F - 48.9 °F 80% 30.05 in 10.0 mi North 4.6 mph - N/A   Clear
9:52 AM 60.1 °F - 48.9 °F 67% 30.05 in 10.0 mi NE 6.9 mph - N/A   Clear
10:52 AM 63.0 °F - 48.9 °F 60% 30.06 in 10.0 mi North 6.9 mph - N/A   Clear
11:52 AM 63.0 °F - 46.0 °F 54% 30.05 in 10.0 mi Calm Calm - N/A   Mostly Cloudy
12:52 PM 66.0 °F - 46.9 °F 50% 30.04 in 10.0 mi ENE 4.6 mph - N/A   Partly Cloudy
1:52 PM 66.9 °F - 46.0 °F 47% 30.02 in 10.0 mi Calm Calm - N/A   Clear
2:52 PM 68.0 °F - 46.9 °F 47% 30.01 in 10.0 mi Variable 3.5 mph - N/A   Clear
3:52 PM 66.9 °F - 48.0 °F 51% 30.00 in 10.0 mi NE 8.1 mph - N/A   Partly Cloudy
4:52 PM 64.9 °F - 48.0 °F 54% 30.00 in 10.0 mi ENE 5.8 mph - N/A   Clear
5:52 PM 62.1 °F - 46.9 °F 58% 30.01 in 10.0 mi ENE 10.4 mph - N/A   Clear
6:52 PM 57.0 °F - 46.0 °F 67% 30.03 in 10.0 mi ENE 6.9 mph - N/A   Clear
7:52 PM 55.0 °F - 46.9 °F 74% 30.04 in 10.0 mi ENE 5.8 mph - N/A   Clear
8:52 PM 51.1 °F - 46.0 °F 83% 30.04 in 10.0 mi ENE 3.5 mph - N/A   Clear
9:52 PM 52.0 °F - 46.0 °F 80% 30.04 in 10.0 mi NE 5.8 mph - N/A   Clear
10:52 PM 48.9 °F - 45.0 °F 86% 30.05 in 10.0 mi Calm Calm - N/A   Clear
11:52 PM 46.9 °F - 44.1 °F 90% 30.06 in 10.0 mi Calm Calm - N/A   Clear